Location: Aix-en-Ergny
(50.5839°N, 1.9996°E)
Time: 20:49:59
(UTC+00:00)

Cosmos 2360 Rocket - Pass Details

Date: 23 October 2019
Orbit: 832 x 846 km, 71.0° (Epoch: 12 November)

Event Time Altitude Azimuth Distance (km) Brightness Sun altitude
Exits shadow 02:41:19 26° 11° (N) 1,601 3.9 -35.6°
Drops below altitude 10° 02:43:52 10° 23° (NNE) 2,471 5.1 -35.2°
Sets 02:46:24 0° 29° (NNE) 3,412 6.1 -34.9°
